SCP
0 0 0 0 0 0 0 0 0 0 0 0 -0 0 0 -0 0 0 0 0 -0 -0 -0 -0 -0 -0 0 0 0 0 0 0 0 0 0 0 0 0 0 0 0 0 0 -0 -0 -0 0 0 0
0 0 0 0 0 -0 0 0 0 0 0 0 0 0 0 -0 0 -0 -0 -0 -0 -0 -0 -0 -0 -0 0 0 0 0 0 0 0 0 0 0 -0 0 0 0 0 -0 0 0 0 0 0 0 0
0 0 0 0 0 -0 0 0 0 -0 0 0 0 0 0 0 -0 -0 0 -0 -0 -0 -0 -0 -0 -0 0 0 0 0 0 0 0 0 0 0 0 -0 -0 0 -0 -0 0 0 -0 0 0 0 0
0 0 0 0 0 0 0 0 -0 0 0 0 0 0 -0 -0 0 -0 -0 -0 -0 -0 -0 -0 -0 -0 0 0 0 0 0 0 0 0 0 0 0 0 0 0 -0 0 0 -0 0 -0 -0 -0 0
0 0 0 -0 0 0 0 0 0 0 0 0 0 0 0 0 -0 0 -0 -0 -0 -0 -0 -0 -0 -0 0 0 0 0 0 0 0 -0 -0 0 0 0 0 -0 -0 -0 -0 -0 0 0 -0 -0 -0
0 0 0 0 0 0 0 0 0 0 0 0 0 0 0 -0 0 0 0 -0 -0 -0 -0 -0 -0 -0 -0 -0 0 0 0 0 -0 -0 -0 -0 0 0 0 -0 -0 -0 -0 -0 -0 -0 -0 -0 -0
0 0 0 0 0 0 0 0 0 0 0 0 0 0 -0 -0 0 0 0 0 -0 -0 -0 -0 -0 -0 -0 -0 0 0 0 0 0 -0 -0 -0 0 0 0 -0 0 -0 -0 -0 -0 -0 -0 -0 0
0 0 0 0 0 0 0 0 0 0 0 0 0 0 0 -0 0 0 0 0 0 -0 -0 -0 -0 -0 0 0 0 0 0 0 0 -0 -0 -0 0 0 -0 -0 -0 -0 -0 -0 -0 -0 -0 -0 -0
0 -0 0 0 0 0 0 0 0 0 0 0 -0 0 0 -0 0 0 0 0 0 -0 -0 -0 -0 -0 0 0 0 0 0 0 0 -0 -0 -0 0 0 -0 -0 0 0 0 -0 -0 -0 -0 -0 -0
-0 -0 0 -0 0 0 0 0 0 0 0 0 0 -0 -0 -0 -0 -0 -0 -0 -0 -0 -0 -0 -0 -0 -0 -0 -0 0 0 0 0 -0 -0 0 0 0 0 -0 0 0 0 0 -0 0 0 0 -0
-0 -0 -0 -0 0 0 0 0 0 0 0 0 0 -0 -0 0 0 0 -0 -0 -0 -0 -0 -0 0 -0 -0 -0 -0 0 0 0 -0 -0 -0 0 0 0 0 0 0 -0 -0 -0 -0 -0 -0 0 -0
-0 -0 -0 0 0 0 0 0 0 0 -0 0 -0 -0 -0 -0 -0 -0 -0 -0 -0 -0 -0 -0 -0 0 -0 -0 0 0 0 0 0 0 0 0 0 0 0 0 0 0 0 -0 -0 -0 -0 -0 -0
-0 -0 0 0 0 0 0 0 0 -0 0 -0 0 -0 -0 -0 0 -0 -0 -0 -0 -0 -0 -0 -0 0 -0 0 0 0 0 0 0 -0 0 0 0 0 0 0 0 0 0 0 0 0 -0 -0 -0
0 0 0 0 0 1 1 0 0 0 0 -0 0 -0 -0 -0 -0 -0 -0 -0 -0 -0 -0 -0 0 0 0 0 0 0 0 0 0 0 0 0 0 0 0 0 0 -0 -0 -0 -0 -0 -0 -0 -0
0 0 0 0 0 0 0 0 0 0 0 0 0 -0 0 -0 -0 -0 -0 -0 -0 -0 0 0 0 0 0 -0 0 0 0 0 0 0 0 0 0 0 0 0 0 0 0 0 -0 -0 -0 -0 -0
-0 0 0 0 0 0 0 0 0 0 0 0 0 -0 0 0 -0 -0 -0 -0 -0 -0 -0 -0 0 -0 -0 -0 -0 0 0 0 0 0 0 0 0 0 0 0 0 0 0 0 -0 0 0 -0 -0
0 -0 0 0 0 0 0 0 0 0 0 0 0 0 0 0 -0 -0 -0 -0 -0 -0 -0 0 -0 -0 -0 -0 -0 -0 0 0 0 0 0 0 0 0 0 0 0 0 0 0 0 0 0 -0 0
0 0 0 0 0 0 0 0 0 0 0 0 0 0 0 0 -0 -0 -0 -0 -0 -0 -0 0 -0 -0 -0 -0 -0 -0 0 0 0 0 0 0 0 0 0 0 -0 -0 0 0 0 -0 -0 0 0
0 -0 0 -0 0 0 0 0 0 0 0 0 0 0 0 0 0 -0 -0 -0 -0 -0 -0 0 -0 -0 0 -0 0 0 0 0 0 0 0 -0 -0 0 -0 -0 -0 -0 0 0 0 0 0 -0 -0
0 0 -0 -0 0 0 0 0 0 0 0 0 0 0 0 0 0 -0 -0 -0 -0 -0 -0 0 0 0 0 0 0 0 0 0 0 -0 0 -0 -0 -0 0 -0 0 -0 -0 0 0 0 0 0 -0
0 0 0 0 -0 0 0 0 0 0 0 0 0 0 0 0 0 -0 0 -0 -0 -0 -0 -0 -0 0 0 0 0 0 0 0 0 0 0 0 0 0 0 0 0 0 0 0 0 0 -0 -0 -0
0 0 0 -0 -0 0 0 0 0 0 0 0 0 0 0 0 0 -0 0 0 -0 -0 0 -0 0 -0 0 0 -0 0 0 -0 0 0 0 0 0 0 0 0 0 0 0 0 0 0 0 0 -0
0 0 0 0 0 0 0 0 0 0 1 1 0 0 0 -0 0 0 0 0 0 -0 -0 0 0 -0 -0 -0 -0 0 0 0 0 -0 -0 0 0 0 0 0 0 0 0 0 0 0 0 0 0
0 0 0 0 0 0 0 0 0 0 1 0 0 0 0 -0 0 0 0 0 0 0 0 -0 0 0 0 -0 0 0 0 0 -0 -0 -0 -0 -0 0 0 0 0 0 0 0 0 0 0 0 0
0 0 0 0 0 0 0 0 0 0 0 0 0 0 0 0 0 0 0 0 -0 0 0 0 -0 0 0 0 0 0 -0 0 0 0 -0 -0 0 0 0 0 0 0 0 0 0 0 0 0 0
0 -0 0 0 0 0 0 0 0 0 0 0 0 0 -0 -0 0 -0 -0 -0 -0 0 0 0 0 0 0 0 -0 -0 -0 -0 0 0 0 0 0 0 0 -0 0 0 -0 0 0 0 0 0 0
0 0 0 0 0 0 0 0 -0 0 0 0 0 -0 -0 -0 -0 0 0 0 -0 -0 -0 0 0 0 0 0 -0 0 0 0 0 0 0 0 0 0 0 0 0 0 -0 -0 0 0 0 0 0
0 0 0 0 0 0 0 -0 0 0 0 0 0 0 -0 0 0 0 0 0 0 0 0 0 0 0 0 0 0 0 0 0 0 0 0 0 0 0 0 0 0 0 0 0 0 0 0 0 0
0 0 0 0 0 0 0 0 0 0 0 -0 0 0 -0 0 0 0 0 0 0 0 0 0 0 0 0 0 0 0 0 0 0 0 0 0 0 0 0 0 0 0 0 0 0 0 0 0 0
0 0 0 0 0 0 0 0 0 0 0 0 0 0 -0 -0 0 0 0 0 0 0 0 0 0 0 0 0 0 0 0 0 0 0 0 0 0 0 0 0 0 0 0 0 0 0 0 0 0
Wind_Speed_500mb
15 18 12 7 2 6 7 6 3 13 9 4 26 5 7 8 0 4 32 62 59 55 48 43 39 37 35 30 27 28 24 23 21 21 22 20 19 19 18 17 17 18 21 20 23 26 27 30 32
19 20 10 6 7 10 7 5 11 9 12 25 18 16 6 7 5 19 54 62 58 57 50 44 39 36 33 27 25 25 22 20 18 16 17 17 17 13 14 18 19 20 15 18 21 24 26 26 29
20 19 8 7 5 11 7 1 15 25 21 12 9 14 6 5 7 48 47 68 60 55 49 42 37 34 29 25 22 22 20 18 16 13 15 14 11 12 12 14 18 18 14 16 19 23 25 24 28
15 9 9 7 11 5 1 11 29 21 9 9 19 14 13 19 31 38 64 69 60 53 46 40 36 32 26 22 21 18 17 15 14 13 11 12 8 9 14 14 15 13 14 15 18 20 24 24 26
8 7 6 5 8 5 4 18 15 9 12 10 5 12 16 11 30 52 66 67 58 51 42 37 34 30 25 24 20 15 12 11 10 10 9 9 9 11 13 12 15 14 9 12 15 17 20 22 25
5 3 4 3 6 7 7 17 12 15 17 19 28 23 8 17 34 55 61 61 54 46 39 35 31 30 26 21 17 13 9 7 6 6 7 7 7 7 10 10 12 13 15 11 10 15 16 21 22
6 4 1 2 3 4 7 16 3 10 18 15 26 12 10 21 38 51 57 54 50 42 37 35 33 29 24 18 13 9 8 6 3 1 2 3 4 3 5 8 9 10 10 12 13 12 17 19 19
7 4 4 4 4 7 14 10 10 12 13 29 13 11 15 33 44 53 54 50 47 41 36 34 32 28 23 18 13 10 8 6 3 2 2 2 1 4 6 8 8 10 11 10 13 14 16 20 22
5 4 6 5 10 10 17 7 8 9 25 8 6 18 32 44 47 51 51 48 47 42 39 35 32 27 22 17 14 10 9 8 6 7 4 10 5 5 5 8 10 11 12 13 14 14 16 19 23
2 2 11 2 14 18 16 11 11 11 15 11 21 31 42 45 50 54 54 51 48 44 41 36 33 26 21 19 16 14 13 11 11 10 11 2 5 7 9 12 15 14 16 16 17 18 19 21 23
4 2 5 7 25 29 21 16 4 16 3 12 36 47 46 42 44 46 45 43 42 40 39 36 33 27 22 18 16 14 11 9 10 3 10 16 12 10 11 9 9 15 15 18 19 20 21 23 25
5 5 3 18 25 25 20 17 17 8 9 18 45 54 51 43 43 44 43 38 37 37 34 32 29 27 22 18 15 14 10 8 8 4 4 4 5 4 11 12 10 10 15 17 21 23 23 27 29
2 7 17 31 33 24 24 15 16 17 19 30 43 44 45 38 34 33 34 33 33 34 31 28 29 25 21 18 16 15 12 10 8 9 5 6 3 3 6 10 15 13 16 19 22 23 25 26 29
6 25 29 22 28 17 21 15 6 9 23 28 35 36 36 38 37 33 33 35 33 28 28 25 26 25 21 17 14 14 15 11 10 9 7 7 4 4 3 7 9 15 15 18 21 21 21 25 29
11 20 22 10 12 10 19 7 8 31 26 29 29 26 27 29 32 38 34 30 34 27 24 23 24 22 23 21 17 16 12 9 9 7 6 7 11 11 11 9 8 2 3 8 6 11 13 14 22
6 7 6 6 7 13 5 4 11 28 33 29 27 26 26 26 30 30 36 36 27 30 21 26 25 24 23 21 20 16 14 12 9 6 7 11 8 10 13 9 5 4 10 7 4 4 7 10 11
12 4 5 10 2 9 4 5 12 28 28 26 21 22 25 29 37 38 39 39 35 27 16 25 31 26 23 20 20 18 18 15 14 11 6 5 7 7 7 10 6 6 9 8 8 11 12 10 13
3 4 2 7 6 7 5 6 11 19 27 25 25 21 25 30 30 38 40 40 36 32 25 17 27 25 21 22 20 19 17 15 13 13 13 10 12 10 11 13 14 14 11 9 10 14 17 15 18
4 5 5 8 3 6 3 8 16 10 14 22 19 12 18 25 23 24 32 34 33 34 33 19 23 25 22 23 24 24 21 16 19 18 17 16 21 19 16 17 16 18 19 18 18 19 22 22 20
9 8 5 11 4 3 9 5 8 4 13 17 11 8 14 18 10 13 19 23 25 26 27 26 19 21 20 25 25 25 22 21 18 19 19 19 21 21 24 22 23 21 22 21 22 22 23 21 20
9 9 14 6 14 11 4 6 9 8 3 6 9 11 15 10 15 12 15 18 20 25 26 24 15 18 25 27 25 26 27 27 25 21 21 20 26 27 23 27 26 27 29 28 27 27 30 31 29
10 7 12 26 15 6 5 8 10 4 1 8 14 20 17 10 8 15 22 20 16 15 21 30 27 19 20 25 29 27 29 32 29 25 27 28 27 27 29 28 29 33 32 35 32 33 32 35 32
5 2 19 12 8 6 6 7 3 2 7 15 12 19 18 21 14 15 16 21 21 17 24 21 16 17 26 24 23 29 35 34 35 32 33 35 35 34 35 32 35 33 39 41 40 41 40 37 37
27 20 20 10 4 8 6 8 12 6 7 20 29 26 11 17 19 18 16 16 19 16 27 30 28 16 18 18 19 33 22 25 33 36 39 40 46 45 40 41 38 37 37 39 42 43 45 40 42
14 12 6 6 8 7 5 6 20 5 6 16 20 10 6 24 28 24 22 19 17 14 17 26 32 37 28 31 33 26 21 20 30 30 30 28 27 31 38 42 48 49 43 45 43 44 45 44 43
15 10 8 10 9 3 4 11 6 5 2 7 24 22 28 28 23 25 33 31 29 18 7 12 19 26 25 33 38 33 29 28 32 35 38 38 27 28 31 41 54 49 52 48 47 46 43 44 47
11 10 6 10 2 6 4 10 20 12 8 13 24 28 28 26 26 31 40 40 39 29 22 12 5 8 17 33 27 26 24 24 20 19 20 26 30 32 30 37 50 33 37 43 50 57 55 52 51
7 15 7 2 7 9 6 11 14 19 22 20 22 29 31 27 26 31 33 33 39 33 24 15 10 4 1 6 13 21 28 27 27 26 32 40 42 42 40 40 44 46 43 50 57 53 56 57 55
9 8 11 8 3 3 5 8 6 16 27 29 28 28 31 25 24 28 28 32 28 24 17 11 8 5 7 11 17 22 28 32 32 34 35 37 38 40 40 41 44 47 46 44 49 54 52 56 54
3 4 11 10 10 2 5 10 1 11 22 31 32 32 35 30 28 26 26 24 20 16 13 10 6 6 9 13 17 22 28 31 34 37 40 42 45 45 46 43 41 43 44 45 46 47 51 53 58
Wind_Direction_500mb
10 4 8 26 100 66 58 64 126 117 130 154 149 161 161 65 21 59 152 160 160 151 147 147 145 143 137 131 125 117 114 113 109 116 114 117 114 110 104 107 108 116 110 108 112 114 119 124 125
15 6 21 35 64 74 62 137 130 59 118 133 111 121 90 83 60 138 149 157 162 153 151 150 149 146 141 137 133 126 119 114 113 114 115 117 114 114 122 113 112 116 115 114 119 120 126 129 131
12 15 33 61 52 51 57 144 118 123 124 143 115 72 59 34 120 142 161 157 163 158 157 157 156 154 150 146 145 136 127 120 111 109 114 115 120 134 126 132 126 121 118 119 127 130 132 134 134
7 16 49 60 53 68 34 134 124 138 95 77 109 72 64 70 136 153 159 160 163 160 161 162 164 164 163 159 153 144 135 127 119 105 98 105 104 132 143 143 133 127 126 121 127 135 137 138 138
48 39 40 68 38 52 84 140 120 120 101 83 100 92 94 34 156 156 160 163 166 164 165 167 169 170 169 164 159 152 142 133 122 109 100 95 92 122 148 148 147 139 138 136 136 141 148 150 144
68 83 57 11 35 64 77 148 125 106 110 116 101 107 84 128 156 159 162 166 170 171 170 169 172 170 170 173 172 165 161 151 125 116 100 97 106 93 147 146 154 157 162 155 159 157 162 170 166
90 62 154 231 36 84 123 163 68 108 119 112 130 96 124 153 166 164 165 169 173 178 176 174 175 177 182 188 190 189 187 190 177 105 65 121 124 163 152 165 174 165 172 174 179 181 179 182 190
93 96 188 235 220 60 124 141 128 109 70 137 99 148 166 170 167 169 170 172 177 182 184 182 183 189 194 205 209 205 206 203 233 304 271 247 208 195 210 210 203 198 189 193 190 199 200 199 207
133 100 210 227 162 117 153 125 98 106 130 93 30 144 154 156 162 168 173 178 184 188 190 192 193 199 205 214 219 209 211 214 224 253 276 261 221 217 245 226 217 223 210 211 208 210 212 218 219
139 160 214 229 125 135 160 137 129 134 131 63 91 137 151 155 165 173 180 183 188 193 196 197 201 203 205 207 211 210 204 214 223 240 226 176 220 250 265 258 234 219 227 223 222 220 226 230 236
159 251 247 76 124 134 141 123 113 132 168 165 152 147 156 160 171 182 187 191 190 197 204 203 205 202 203 206 209 213 220 213 212 198 259 244 241 251 270 270 242 226 239 242 242 241 240 237 240
251 331 345 111 140 140 140 122 113 41 67 149 152 158 161 169 175 185 193 197 199 204 210 212 208 207 207 206 209 213 212 204 214 173 54 237 227 264 266 258 251 235 240 247 247 244 251 241 241
328 48 63 121 140 137 131 111 104 86 108 135 152 162 171 177 182 192 202 208 210 215 219 217 216 212 213 214 214 215 197 179 190 199 320 49 287 271 299 254 245 246 249 251 253 253 254 245 242
55 103 105 115 126 128 131 122 90 121 137 146 166 176 182 187 190 194 204 213 219 224 231 226 222 220 218 204 209 194 182 203 241 230 217 321 37 100 329 339 270 245 256 262 266 260 251 245 243
98 100 104 90 136 114 128 93 67 152 156 167 184 192 200 206 207 215 220 225 229 234 233 231 213 215 208 196 179 190 206 237 245 263 296 321 285 285 288 329 4 271 193 308 278 251 258 256 245
79 79 117 145 151 133 306 115 133 165 164 180 193 207 215 224 228 231 233 235 240 236 236 228 208 200 195 197 197 201 215 230 232 267 280 281 290 301 295 293 326 301 319 336 317 288 280 244 238
33 84 66 161 13 143 309 158 164 183 185 182 200 217 230 237 239 243 245 242 245 236 245 213 212 211 206 198 198 216 229 240 245 255 270 261 274 299 318 293 278 309 336 338 301 307 287 261 268
58 8 319 204 174 83 140 193 185 188 200 195 199 207 222 233 243 252 246 248 246 245 248 231 212 212 215 219 218 226 236 247 250 253 267 268 272 282 292 303 280 273 294 320 319 309 308 288 296
251 284 275 114 126 105 154 202 200 203 206 201 194 185 229 247 252 254 241 237 243 239 242 231 218 215 220 225 227 235 245 264 263 261 280 273 270 271 283 290 299 275 271 287 296 300 309 293 309
275 310 126 105 84 177 184 209 251 195 222 221 191 176 212 240 239 222 217 224 227 233 243 244 238 222 234 242 248 250 258 268 276 269 274 291 292 298 290 282 280 286 278 280 287 284 293 288 300
310 286 184 155 121 86 168 238 240 179 223 203 163 154 179 198 219 191 169 193 214 215 208 195 221 223 231 239 251 256 263 265 275 287 284 281 293 294 288 277 276 278 278 281 283 289 282 288 292
299 307 185 152 173 194 338 284 250 243 344 146 139 168 183 196 188 181 175 163 163 181 183 188 193 221 228 229 244 250 256 262 271 283 288 292 291 285 285 282 277 274 271 273 280 280 279 276 278
313 213 142 144 111 186 170 264 264 312 185 132 107 135 142 150 125 122 160 160 132 142 179 174 202 225 233 237 252 261 261 264 269 272 273 280 281 282 276 279 275 280 271 268 272 270 269 268 270
149 107 91 88 72 257 86 261 279 227 164 111 64 159 140 173 156 124 126 139 149 143 185 193 206 222 198 222 241 267 285 276 273 276 279 286 283 271 275 267 266 268 274 268 270 271 267 265 267
179 183 123 157 202 267 85 232 264 270 222 124 107 109 221 167 165 135 131 125 138 158 179 207 225 224 228 239 245 262 282 308 278 277 286 292 315 279 272 270 264 263 264 266 264 267 263 266 265
185 219 218 239 228 204 190 236 250 313 281 129 118 113 126 142 146 130 113 106 95 91 166 204 219 224 214 228 244 263 277 291 293 272 282 283 301 290 280 275 263 262 266 271 272 267 264 266 270
157 201 52 118 76 263 195 268 275 208 228 159 122 119 134 150 150 122 107 101 98 91 92 107 152 214 229 239 256 270 294 304 311 301 303 310 307 297 290 284 271 264 272 266 266 266 268 268 268
237 129 155 160 191 239 235 272 254 215 216 176 153 152 148 152 135 114 108 102 88 89 90 90 75 50 304 270 270 276 283 296 298 301 287 286 286 289 285 280 280 279 281 275 272 269 267 266 265
148 170 68 108 323 263 292 276 186 248 207 186 171 160 155 154 136 122 118 106 101 93 82 60 41 331 287 268 267 273 278 281 285 284 285 286 285 286 285 281 279 284 286 282 275 275 268 266 268
262 178 188 233 189 202 304 277 191 272 205 184 171 164 156 154 145 138 130 124 115 102 92 80 54 350 318 303 292 289 289 286 284 283 280 277 275 275 280 283 283 281 283 286 283 278 271 269 270
Wind_Speed_850mb
15 18 12 7 2 6 7 6 3 13 9 4 26 5 7 8 0 4 32 62 59 55 48 43 39 37 35 30 27 28 24 23 21 21 22 20 19 19 18 17 17 18 21 20 23 26 27 30 32
19 20 10 6 7 10 7 5 11 9 12 25 18 16 6 7 5 19 54 62 58 57 50 44 39 36 33 27 25 25 22 20 18 16 17 17 17 13 14 18 19 20 15 18 21 24 26 26 29
20 19 8 7 5 11 7 1 15 25 21 12 9 14 6 5 7 48 47 68 60 55 49 42 37 34 29 25 22 22 20 18 16 13 15 14 11 12 12 14 18 18 14 16 19 23 25 24 28
15 9 9 7 11 5 1 11 29 21 9 9 19 14 13 19 31 38 64 69 60 53 46 40 36 32 26 22 21 18 17 15 14 13 11 12 8 9 14 14 15 13 14 15 18 20 24 24 26
8 7 6 5 8 5 4 18 15 9 12 10 5 12 16 11 30 52 66 67 58 51 42 37 34 30 25 24 20 15 12 11 10 10 9 9 9 11 13 12 15 14 9 12 15 17 20 22 25
5 3 4 3 6 7 7 17 12 15 17 19 28 23 8 17 34 55 61 61 54 46 39 35 31 30 26 21 17 13 9 7 6 6 7 7 7 7 10 10 12 13 15 11 10 15 16 21 22
6 4 1 2 3 4 7 16 3 10 18 15 26 12 10 21 38 51 57 54 50 42 37 35 33 29 24 18 13 9 8 6 3 1 2 3 4 3 5 8 9 10 10 12 13 12 17 19 19
7 4 4 4 4 7 14 10 10 12 13 29 13 11 15 33 44 53 54 50 47 41 36 34 32 28 23 18 13 10 8 6 3 2 2 2 1 4 6 8 8 10 11 10 13 14 16 20 22
5 4 6 5 10 10 17 7 8 9 25 8 6 18 32 44 47 51 51 48 47 42 39 35 32 27 22 17 14 10 9 8 6 7 4 10 5 5 5 8 10 11 12 13 14 14 16 19 23
2 2 11 2 14 18 16 11 11 11 15 11 21 31 42 45 50 54 54 51 48 44 41 36 33 26 21 19 16 14 13 11 11 10 11 2 5 7 9 12 15 14 16 16 17 18 19 21 23
4 2 5 7 25 29 21 16 4 16 3 12 36 47 46 42 44 46 45 43 42 40 39 36 33 27 22 18 16 14 11 9 10 3 10 16 12 10 11 9 9 15 15 18 19 20 21 23 25
5 5 3 18 25 25 20 17 17 8 9 18 45 54 51 43 43 44 43 38 37 37 34 32 29 27 22 18 15 14 10 8 8 4 4 4 5 4 11 12 10 10 15 17 21 23 23 27 29
2 7 17 31 33 24 24 15 16 17 19 30 43 44 45 38 34 33 34 33 33 34 31 28 29 25 21 18 16 15 12 10 8 9 5 6 3 3 6 10 15 13 16 19 22 23 25 26 29
6 25 29 22 28 17 21 15 6 9 23 28 35 36 36 38 37 33 33 35 33 28 28 25 26 25 21 17 14 14 15 11 10 9 7 7 4 4 3 7 9 15 15 18 21 21 21 25 29
11 20 22 10 12 10 19 7 8 31 26 29 29 26 27 29 32 38 34 30 34 27 24 23 24 22 23 21 17 16 12 9 9 7 6 7 11 11 11 9 8 2 3 8 6 11 13 14 22
6 7 6 6 7 13 5 4 11 28 33 29 27 26 26 26 30 30 36 36 27 30 21 26 25 24 23 21 20 16 14 12 9 6 7 11 8 10 13 9 5 4 10 7 4 4 7 10 11
12 4 5 10 2 9 4 5 12 28 28 26 21 22 25 29 37 38 39 39 35 27 16 25 31 26 23 20 20 18 18 15 14 11 6 5 7 7 7 10 6 6 9 8 8 11 12 10 13
3 4 2 7 6 7 5 6 11 19 27 25 25 21 25 30 30 38 40 40 36 32 25 17 27 25 21 22 20 19 17 15 13 13 13 10 12 10 11 13 14 14 11 9 10 14 17 15 18
4 5 5 8 3 6 3 8 16 10 14 22 19 12 18 25 23 24 32 34 33 34 33 19 23 25 22 23 24 24 21 16 19 18 17 16 21 19 16 17 16 18 19 18 18 19 22 22 20
9 8 5 11 4 3 9 5 8 4 13 17 11 8 14 18 10 13 19 23 25 26 27 26 19 21 20 25 25 25 22 21 18 19 19 19 21 21 24 22 23 21 22 21 22 22 23 21 20
9 9 14 6 14 11 4 6 9 8 3 6 9 11 15 10 15 12 15 18 20 25 26 24 15 18 25 27 25 26 27 27 25 21 21 20 26 27 23 27 26 27 29 28 27 27 30 31 29
10 7 12 26 15 6 5 8 10 4 1 8 14 20 17 10 8 15 22 20 16 15 21 30 27 19 20 25 29 27 29 32 29 25 27 28 27 27 29 28 29 33 32 35 32 33 32 35 32
5 2 19 12 8 6 6 7 3 2 7 15 12 19 18 21 14 15 16 21 21 17 24 21 16 17 26 24 23 29 35 34 35 32 33 35 35 34 35 32 35 33 39 41 40 41 40 37 37
27 20 20 10 4 8 6 8 12 6 7 20 29 26 11 17 19 18 16 16 19 16 27 30 28 16 18 18 19 33 22 25 33 36 39 40 46 45 40 41 38 37 37 39 42 43 45 40 42
14 12 6 6 8 7 5 6 20 5 6 16 20 10 6 24 28 24 22 19 17 14 17 26 32 37 28 31 33 26 21 20 30 30 30 28 27 31 38 42 48 49 43 45 43 44 45 44 43
15 10 8 10 9 3 4 11 6 5 2 7 24 22 28 28 23 25 33 31 29 18 7 12 19 26 25 33 38 33 29 28 32 35 38 38 27 28 31 41 54 49 52 48 47 46 43 44 47
11 10 6 10 2 6 4 10 20 12 8 13 24 28 28 26 26 31 40 40 39 29 22 12 5 8 17 33 27 26 24 24 20 19 20 26 30 32 30 37 50 33 37 43 50 57 55 52 51
7 15 7 2 7 9 6 11 14 19 22 20 22 29 31 27 26 31 33 33 39 33 24 15 10 4 1 6 13 21 28 27 27 26 32 40 42 42 40 40 44 46 43 50 57 53 56 57 55
9 8 11 8 3 3 5 8 6 16 27 29 28 28 31 25 24 28 28 32 28 24 17 11 8 5 7 11 17 22 28 32 32 34 35 37 38 40 40 41 44 47 46 44 49 54 52 56 54
3 4 11 10 10 2 5 10 1 11 22 31 32 32 35 30 28 26 26 24 20 16 13 10 6 6 9 13 17 22 28 31 34 37 40 42 45 45 46 43 41 43 44 45 46 47 51 53 58
Wind_Direction_850mb
10 4 8 26 100 66 58 64 126 117 130 154 149 161 161 65 21 59 152 160 160 151 147 147 145 143 137 131 125 117 114 113 109 116 114 117 114 110 104 107 108 116 110 108 112 114 119 124 125
15 6 21 35 64 74 62 137 130 59 118 133 111 121 90 83 60 138 149 157 162 153 151 150 149 146 141 137 133 126 119 114 113 114 115 117 114 114 122 113 112 116 115 114 119 120 126 129 131
12 15 33 61 52 51 57 144 118 123 124 143 115 72 59 34 120 142 161 157 163 158 157 157 156 154 150 146 145 136 127 120 111 109 114 115 120 134 126 132 126 121 118 119 127 130 132 134 134
7 16 49 60 53 68 34 134 124 138 95 77 109 72 64 70 136 153 159 160 163 160 161 162 164 164 163 159 153 144 135 127 119 105 98 105 104 132 143 143 133 127 126 121 127 135 137 138 138
48 39 40 68 38 52 84 140 120 120 101 83 100 92 94 34 156 156 160 163 166 164 165 167 169 170 169 164 159 152 142 133 122 109 100 95 92 122 148 148 147 139 138 136 136 141 148 150 144
68 83 57 11 35 64 77 148 125 106 110 116 101 107 84 128 156 159 162 166 170 171 170 169 172 170 170 173 172 165 161 151 125 116 100 97 106 93 147 146 154 157 162 155 159 157 162 170 166
90 62 154 231 36 84 123 163 68 108 119 112 130 96 124 153 166 164 165 169 173 178 176 174 175 177 182 188 190 189 187 190 177 105 65 121 124 163 152 165 174 165 172 174 179 181 179 182 190
93 96 188 235 220 60 124 141 128 109 70 137 99 148 166 170 167 169 170 172 177 182 184 182 183 189 194 205 209 205 206 203 233 304 271 247 208 195 210 210 203 198 189 193 190 199 200 199 207
133 100 210 227 162 117 153 125 98 106 130 93 30 144 154 156 162 168 173 178 184 188 190 192 193 199 205 214 219 209 211 214 224 253 276 261 221 217 245 226 217 223 210 211 208 210 212 218 219
139 160 214 229 125 135 160 137 129 134 131 63 91 137 151 155 165 173 180 183 188 193 196 197 201 203 205 207 211 210 204 214 223 240 226 176 220 250 265 258 234 219 227 223 222 220 226 230 236
159 251 247 76 124 134 141 123 113 132 168 165 152 147 156 160 171 182 187 191 190 197 204 203 205 202 203 206 209 213 220 213 212 198 259 244 241 251 270 270 242 226 239 242 242 241 240 237 240
251 331 345 111 140 140 140 122 113 41 67 149 152 158 161 169 175 185 193 197 199 204 210 212 208 207 207 206 209 213 212 204 214 173 54 237 227 264 266 258 251 235 240 247 247 244 251 241 241
328 48 63 121 140 137 131 111 104 86 108 135 152 162 171 177 182 192 202 208 210 215 219 217 216 212 213 214 214 215 197 179 190 199 320 49 287 271 299 254 245 246 249 251 253 253 254 245 242
55 103 105 115 126 128 131 122 90 121 137 146 166 176 182 187 190 194 204 213 219 224 231 226 222 220 218 204 209 194 182 203 241 230 217 321 37 100 329 339 270 245 256 262 266 260 251 245 243
98 100 104 90 136 114 128 93 67 152 156 167 184 192 200 206 207 215 220 225 229 234 233 231 213 215 208 196 179 190 206 237 245 263 296 321 285 285 288 329 4 271 193 308 278 251 258 256 245
79 79 117 145 151 133 306 115 133 165 164 180 193 207 215 224 228 231 233 235 240 236 236 228 208 200 195 197 197 201 215 230 232 267 280 281 290 301 295 293 326 301 319 336 317 288 280 244 238
33 84 66 161 13 143 309 158 164 183 185 182 200 217 230 237 239 243 245 242 245 236 245 213 212 211 206 198 198 216 229 240 245 255 270 261 274 299 318 293 278 309 336 338 301 307 287 261 268
58 8 319 204 174 83 140 193 185 188 200 195 199 207 222 233 243 252 246 248 246 245 248 231 212 212 215 219 218 226 236 247 250 253 267 268 272 282 292 303 280 273 294 320 319 309 308 288 296
251 284 275 114 126 105 154 202 200 203 206 201 194 185 229 247 252 254 241 237 243 239 242 231 218 215 220 225 227 235 245 264 263 261 280 273 270 271 283 290 299 275 271 287 296 300 309 293 309
275 310 126 105 84 177 184 209 251 195 222 221 191 176 212 240 239 222 217 224 227 233 243 244 238 222 234 242 248 250 258 268 276 269 274 291 292 298 290 282 280 286 278 280 287 284 293 288 300
310 286 184 155 121 86 168 238 240 179 223 203 163 154 179 198 219 191 169 193 214 215 208 195 221 223 231 239 251 256 263 265 275 287 284 281 293 294 288 277 276 278 278 281 283 289 282 288 292
299 307 185 152 173 194 338 284 250 243 344 146 139 168 183 196 188 181 175 163 163 181 183 188 193 221 228 229 244 250 256 262 271 283 288 292 291 285 285 282 277 274 271 273 280 280 279 276 278
313 213 142 144 111 186 170 264 264 312 185 132 107 135 142 150 125 122 160 160 132 142 179 174 202 225 233 237 252 261 261 264 269 272 273 280 281 282 276 279 275 280 271 268 272 270 269 268 270
149 107 91 88 72 257 86 261 279 227 164 111 64 159 140 173 156 124 126 139 149 143 185 193 206 222 198 222 241 267 285 276 273 276 279 286 283 271 275 267 266 268 274 268 270 271 267 265 267
179 183 123 157 202 267 85 232 264 270 222 124 107 109 221 167 165 135 131 125 138 158 179 207 225 224 228 239 245 262 282 308 278 277 286 292 315 279 272 270 264 263 264 266 264 267 263 266 265
185 219 218 239 228 204 190 236 250 313 281 129 118 113 126 142 146 130 113 106 95 91 166 204 219 224 214 228 244 263 277 291 293 272 282 283 301 290 280 275 263 262 266 271 272 267 264 266 270
157 201 52 118 76 263 195 268 275 208 228 159 122 119 134 150 150 122 107 101 98 91 92 107 152 214 229 239 256 270 294 304 311 301 303 310 307 297 290 284 271 264 272 266 266 266 268 268 268
237 129 155 160 191 239 235 272 254 215 216 176 153 152 148 152 135 114 108 102 88 89 90 90 75 50 304 270 270 276 283 296 298 301 287 286 286 289 285 280 280 279 281 275 272 269 267 266 265
148 170 68 108 323 263 292 276 186 248 207 186 171 160 155 154 136 122 118 106 101 93 82 60 41 331 287 268 267 273 278 281 285 284 285 286 285 286 285 281 279 284 286 282 275 275 268 266 268
262 178 188 233 189 202 304 277 191 272 205 184 171 164 156 154 145 138 130 124 115 102 92 80 54 350 318 303 292 289 289 286 284 283 280 277 275 275 280 283 283 281 283 286 283 278 271 269 270